Location: Acts Church of Fort Worth
(32.6786°N, 97.2668°W)
Time: 21:16:35
(UTC+00:00)

SL-12 R/B(2) - Pass Details

Date: 18 January 2026
Orbit: 1171 x 2178 km, 63.4° (Epoch: 10 February)

Event Time Altitude Azimuth Distance (km) Brightness Sun altitude
Exits shadow 11:30:34 16° 218° (SW) 2,750 5.6 -25.0°
Maximum altitude 11:36:53 75° 302° (WNW) 1,380 4.0 -23.7°
Drops below altitude 10° 11:45:51 10° 27° (NNE) 3,737 6.7 -21.8°
Sets 11:49:10 0° 30° (NNE) 4,868 7.4 -21.1°
